SCP
0 0 0 0 0 0 0 0 0 0 1 1 1 1 1 1 1 1 1 1 2 2 2 1 2 2 2 1 1 1 1 1 1 2 3 3 3 3 3 2 2 2 2 2
0 0 0 0 0 0 0 0 0 1 1 1 1 1 1 1 1 1 1 2 2 2 1 1 2 2 1 1 1 1 1 1 1 2 3 3 4 3 3 3 2 2 2 2
0 0 0 0 0 0 0 0 0 0 1 1 1 1 1 1 1 1 1 2 2 2 1 1 2 2 1 1 1 1 1 1 1 1 2 3 3 3 3 3 2 2 2 2
0 0 0 0 0 0 0 0 0 0 1 1 1 1 1 1 1 1 1 1 2 2 2 2 2 2 1 1 1 1 1 1 1 1 1 2 2 2 2 2 2 2 2 2
0 0 0 0 0 0 0 0 0 0 0 0 0 0 1 1 1 1 1 2 2 2 2 2 2 2 2 1 1 1 1 1 1 1 1 1 1 1 1 1 1 1 1 1
0 0 0 0 0 0 0 0 0 0 0 0 0 0 0 1 1 1 2 2 2 2 3 2 2 2 2 1 1 0 0 1 1 1 1 1 1 1 1 1 1 1 1 1
0 0 0 0 0 0 0 0 0 0 0 0 0 0 1 1 1 2 2 2 2 2 2 2 2 2 2 1 1 1 0 0 1 1 1 1 0 0 0 0 1 1 1 1
0 0 0 0 0 0 0 0 0 0 0 0 0 0 1 1 1 2 2 2 2 2 2 2 2 2 2 1 1 1 0 0 0 0 0 0 0 0 0 0 0 0 0 0
0 0 0 0 0 0 0 0 0 0 0 0 0 0 1 1 1 2 2 2 2 2 2 2 2 2 2 1 1 1 0 0 0 0 0 0 0 0 0 0 0 0 0 0
0 0 0 0 0 0 0 0 0 0 0 0 0 0 1 1 1 1 2 2 2 2 2 2 1 1 1 1 1 0 0 0 0 0 0 0 0 0 0 0 0 0 0 0
0 0 0 0 0 0 0 0 0 0 0 0 0 0 1 1 1 1 2 2 2 2 2 1 1 1 1 1 0 0 0 0 0 0 0 0 0 0 0 0 0 0 0 0
0 0 0 0 0 0 0 0 1 0 0 0 0 0 1 1 1 1 2 2 2 2 1 1 1 1 1 1 0 0 0 0 0 0 0 0 0 0 0 0 0 0 0 0
0 0 0 0 0 0 0 0 0 0 0 0 0 0 1 1 1 1 2 2 1 1 1 1 1 1 1 1 0 0 0 0 0 0 0 0 0 0 0 0 0 0 0 0
0 0 0 0 0 0 0 0 0 0 0 0 0 0 1 1 1 1 1 1 1 1 1 1 1 1 1 1 0 0 0 0 0 0 0 0 0 0 0 0 0 0 0 0
0 0 0 0 0 0 0 0 0 0 0 0 0 0 1 1 1 1 1 1 1 0 0 0 0 1 1 1 0 0 0 0 0 0 0 0 0 0 0 0 0 0 0 0
0 0 0 0 0 0 0 0 0 0 0 0 0 1 1 1 1 1 2 1 1 0 0 0 0 1 1 0 0 0 0 0 0 0 0 0 0 0 0 0 0 0 0 0
0 0 0 0 0 0 0 0 0 0 0 0 1 1 1 1 1 2 2 1 1 0 0 0 0 0 0 0 0 0 0 0 0 0 0 0 0 0 0 0 0 0 0 0
1 0 0 0 0 0 0 0 0 0 0 0 1 1 1 1 1 2 2 1 1 0 0 0 0 0 0 0 0 0 0 0 0 0 0 0 0 0 0 0 0 0 0 0
1 1 0 0 0 0 0 0 0 0 0 0 1 1 1 1 1 1 1 1 1 0 0 0 0 0 0 0 0 0 0 0 0 0 0 0 0 0 0 0 0 0 0 0
1 1 0 0 0 0 0 0 0 0 0 0 1 1 0 0 1 1 0 0 0 0 0 0 0 0 0 0 0 0 0 0 0 0 0 0 0 0 0 0 0 0 0 0
0 0 0 0 0 0 0 0 0 0 0 0 0 0 0 0 0 0 0 0 0 0 0 0 0 0 0 0 0 0 0 0 0 0 0 0 0 0 0 0 0 0 0 0
0 0 0 0 0 0 0 0 0 0 0 0 0 0 0 0 0 0 0 0 0 0 0 0 0 0 0 0 0 0 0 0 0 0 0 0 0 0 0 0 0 0 0 0
0 0 0 0 0 0 0 0 0 0 0 0 0 0 0 0 0 0 0 0 0 0 0 0 0 0 0 0 0 0 0 0 0 0 0 0 0 0 0 0 0 0 0 0
0 0 0 0 0 0 0 0 0 0 0 0 0 0 0 0 0 0 0 0 0 0 0 0 0 0 0 0 0 0 0 0 0 0 0 0 0 0 0 0 0 0 0 0
0 0 0 0 0 0 0 0 0 0 0 0 0 0 0 0 0 0 0 0 0 0 0 0 0 0 0 0 0 0 0 0 0 0 0 0 0 0 0 0 0 0 0 0
0 0 0 0 0 0 0 0 0 0 0 0 0 0 0 0 0 0 0 0 0 0 0 0 0 0 0 0 0 0 0 0 0 0 0 0 0 0 0 0 0 0 0 0
Wind_Speed
7 9 9 7 5 2 7 9 10 9 7 9 8 9 11 11 10 10 9 8 8 7 8 7 7 7 6 6 6 6 5 4 2 1 1 1 2 2 3 3 4 3 2 1
9 8 4 4 4 5 8 9 10 9 6 5 7 8 9 10 10 9 9 8 8 9 8 6 6 6 6 7 6 6 5 4 3 2 1 1 1 2 3 3 4 4 4 3
7 5 4 6 8 9 8 8 9 10 9 6 7 8 10 10 9 9 9 8 8 8 8 7 6 6 7 7 6 6 6 5 4 2 2 2 2 2 3 4 3 5 5 4
4 4 6 8 8 8 7 5 7 11 12 9 10 8 11 12 12 11 10 10 10 9 8 8 7 7 7 6 6 7 6 6 5 4 3 3 3 3 4 3 4 4 5 5
5 5 7 7 5 6 2 5 8 10 9 7 10 9 8 12 12 13 12 11 10 10 9 9 8 7 7 6 6 6 7 7 7 7 6 5 5 4 3 3 4 4 5 5
4 4 2 2 3 4 6 7 7 8 9 10 8 9 5 8 9 10 11 11 10 10 10 9 9 8 7 6 6 6 7 7 7 7 7 7 7 5 5 5 4 3 3 4
7 7 5 4 6 8 9 9 7 9 9 6 5 7 1 4 3 5 8 10 11 11 11 10 10 9 7 7 6 6 7 7 7 7 7 7 6 5 6 5 5 4 4 4
7 7 5 2 4 5 8 10 7 6 6 4 6 6 4 5 2 2 6 9 10 11 11 10 9 8 8 7 6 6 7 7 6 7 7 6 6 4 5 6 5 5 4 5
3 3 5 2 2 5 7 8 5 7 7 6 5 4 5 4 4 4 7 9 10 11 11 11 9 9 8 7 7 7 7 7 6 6 6 6 6 6 6 5 5 5 5 4
3 3 4 4 5 2 4 3 5 7 6 7 6 6 3 5 4 5 7 8 8 10 11 10 9 8 8 7 7 7 6 6 6 6 5 5 6 6 6 6 7 6 6 5
3 5 4 5 4 3 4 6 6 6 6 6 5 2 5 2 4 5 7 8 8 9 10 9 9 8 8 7 7 6 6 6 5 5 5 5 5 6 6 6 6 6 6 5
1 5 3 3 1 2 3 3 5 6 5 6 6 4 7 4 5 6 7 8 8 9 9 9 9 8 7 7 7 6 5 5 5 5 5 5 5 6 6 6 6 6 6 5
2 4 5 6 7 5 3 2 4 5 5 5 6 3 7 6 7 7 8 8 8 9 9 8 8 7 6 6 6 5 5 5 4 4 5 6 6 6 6 6 6 6 6 6
4 4 5 4 1 1 3 2 3 6 5 4 3 2 5 6 6 6 7 7 7 8 8 8 7 7 6 6 5 5 5 5 4 4 5 6 6 6 6 5 6 6 6 6
3 4 2 1 1 1 1 1 1 2 4 4 3 3 5 4 4 5 6 7 7 7 7 7 7 6 6 6 5 5 5 4 4 4 5 5 5 5 5 5 6 6 6 6
1 2 3 3 3 2 2 2 1 1 3 2 2 5 6 5 5 5 5 6 6 6 6 6 6 6 6 6 5 5 4 4 4 4 5 5 5 5 5 5 5 6 6 6
3 4 4 3 4 4 2 5 3 3 4 4 4 5 4 4 4 4 5 5 5 6 6 5 5 6 6 6 5 5 5 4 4 4 5 5 5 5 5 5 6 6 6 6
2 3 3 2 4 3 5 4 4 3 5 5 5 5 4 5 4 4 5 5 5 5 6 5 5 5 6 6 5 5 5 4 4 4 5 5 4 5 4 5 6 6 5 5
0 2 2 2 2 3 5 2 2 2 3 5 4 4 5 5 5 5 5 4 5 5 6 6 6 6 6 6 5 5 5 5 4 4 5 4 4 4 4 5 5 5 5 5
3 2 3 3 2 1 5 4 2 3 3 4 3 2 2 2 1 4 5 5 6 6 6 7 6 7 7 6 5 5 5 4 4 4 4 4 4 4 4 5 4 4 4 4
3 2 2 2 1 5 6 4 4 3 5 4 2 2 2 2 4 6 6 6 7 7 7 7 6 6 6 6 5 5 5 5 5 4 4 4 4 4 4 4 3 3 4 5
1 1 1 1 1 4 6 3 4 6 4 3 4 4 5 6 7 8 7 8 8 7 7 7 6 6 6 5 5 5 5 5 5 4 5 5 4 3 4 3 3 3 3 4
3 5 3 4 6 6 5 5 5 3 4 4 4 5 6 7 7 8 8 8 8 7 7 6 7 7 6 5 4 6 6 5 5 5 5 5 4 4 3 3 3 3 2 2
4 1 3 5 6 5 5 5 5 5 5 5 5 6 6 7 7 8 8 8 8 7 7 6 7 7 6 5 5 5 6 5 5 5 5 4 4 4 4 2 2 3 3 3
4 2 3 5 6 5 5 5 6 6 6 6 6 6 6 7 8 8 8 8 7 7 6 6 6 6 7 6 6 5 5 4 5 5 4 4 4 4 3 4 4 4 6 6
3 2 1 4 4 3 5 5 5 5 5 6 6 6 6 7 8 8 8 7 7 7 6 6 6 6 6 6 6 5 5 4 5 5 4 3 3 3 3 4 5 6 5 4
Wind_Direction
193 213 198 182 220 225 186 185 168 146 159 193 177 157 160 171 183 177 176 169 157 134 117 109 98 91 85 78 70 61 51 37 19 23 20 98 98 86 72 64 48 39 36 32
196 202 170 174 196 204 196 192 164 143 154 200 170 167 165 181 192 188 185 179 162 144 135 122 108 98 86 77 70 67 55 42 30 40 31 50 75 81 77 61 48 38 34 19
205 126 156 193 188 198 200 203 174 160 155 183 174 182 186 187 195 193 199 186 174 166 152 140 122 102 87 74 63 59 49 40 33 29 87 110 125 107 78 60 51 37 33 32
196 143 189 197 191 208 193 196 187 173 188 182 203 210 187 188 193 198 198 191 179 169 158 143 128 110 91 81 74 66 57 48 40 36 56 67 68 74 57 49 50 47 43 36
154 171 196 196 183 218 171 172 190 198 214 203 207 241 174 181 200 200 197 191 179 169 157 141 128 114 99 87 78 72 65 55 48 46 56 62 68 73 72 64 65 48 50 39
135 161 212 168 152 173 150 162 174 207 220 222 206 238 189 177 205 196 187 181 174 163 149 137 127 118 107 96 85 78 72 61 54 55 56 60 66 66 63 53 47 42 45 39
162 157 151 175 171 172 196 201 202 206 217 217 167 236 139 123 170 195 179 171 166 159 149 142 137 128 114 101 91 85 80 71 64 63 60 60 63 66 62 47 46 30 29 29
190 166 147 180 236 212 216 238 252 247 235 199 180 226 106 85 98 148 155 154 157 157 149 145 140 131 123 112 102 90 83 77 71 67 64 58 51 51 55 44 35 38 28 25
224 156 129 126 244 253 220 235 286 276 264 252 210 177 133 120 126 134 138 146 155 153 148 144 140 134 124 114 100 92 87 81 72 69 68 63 54 48 48 43 36 42 32 24
283 232 163 169 203 185 280 245 240 252 252 249 223 212 161 146 146 143 142 145 146 148 146 143 139 131 121 112 102 94 91 84 75 68 59 63 62 57 51 44 42 35 31 28
271 251 195 194 229 243 217 218 250 261 274 271 255 128 49 65 141 155 150 147 144 146 143 142 138 132 128 120 111 104 97 91 83 74 69 65 64 61 57 51 44 36 30 27
262 272 235 185 131 252 253 269 258 259 255 266 282 88 58 60 107 131 135 136 139 140 141 139 137 135 133 123 116 108 103 98 88 80 76 70 64 59 53 49 41 35 32 27
214 242 225 190 182 186 207 229 254 268 269 265 271 106 81 83 99 114 125 129 134 139 140 138 138 137 131 124 117 112 104 92 85 83 80 71 61 57 51 46 41 36 36 34
266 256 266 269 317 203 221 238 249 262 267 272 289 72 93 87 100 113 123 130 135 140 139 140 140 137 133 131 127 116 103 96 86 84 78 70 58 54 50 45 43 41 40 39
258 237 227 56 82 200 281 290 283 288 309 303 346 42 72 81 107 119 125 130 134 137 142 143 143 140 138 133 125 112 105 97 92 90 82 75 66 59 54 49 46 43 40 43
237 217 180 166 149 138 80 31 2 349 343 342 42 71 64 84 98 113 125 132 138 142 144 146 149 147 146 138 131 123 113 104 101 93 86 82 76 69 60 54 50 48 44 42
185 201 214 185 165 194 111 25 20 51 27 349 10 64 82 89 97 115 125 129 135 143 146 146 151 148 143 141 136 128 119 113 109 100 93 88 84 76 63 55 54 52 49 48
196 209 228 190 199 214 79 51 31 43 50 42 61 78 84 85 85 99 116 127 133 142 144 142 138 133 133 132 130 125 118 114 110 104 98 94 86 78 67 61 57 54 52 49
174 239 242 227 203 128 120 65 347 320 65 49 69 89 95 107 110 101 95 105 120 126 130 134 135 132 132 131 131 127 121 116 110 103 98 93 85 77 68 64 59 54 56 54
123 221 242 221 237 107 74 39 344 263 120 68 67 95 118 185 208 104 102 106 110 113 119 127 131 130 131 130 129 124 122 116 108 103 97 90 82 76 69 67 63 61 60 65
159 169 221 224 173 87 45 353 275 280 55 36 37 92 120 34 48 104 118 114 114 115 122 132 134 130 129 133 134 128 123 115 112 108 101 92 86 84 80 75 75 74 70 65
324 173 160 240 199 85 30 9 20 40 49 55 74 94 96 90 102 117 122 123 126 125 129 132 130 124 127 137 139 128 119 116 117 115 107 97 89 84 85 77 73 74 79 93
29 15 25 30 58 70 52 54 63 70 76 76 88 101 115 120 123 125 129 130 131 130 131 133 131 124 126 138 138 128 126 129 129 122 105 95 89 82 85 92 92 90 71 67
108 70 107 106 99 90 82 85 81 78 81 89 102 115 121 125 126 129 132 132 133 134 135 138 133 130 130 130 124 122 128 135 130 119 110 105 102 100 91 82 89 80 66 61
94 137 121 115 117 116 95 81 84 86 94 101 107 111 117 125 129 131 132 133 135 134 136 139 138 137 134 136 135 132 135 139 128 119 115 114 108 97 96 78 47 37 50 31
67 60 66 95 112 106 102 97 99 103 106 112 116 115 119 126 130 133 131 131 134 135 138 142 141 136 137 143 137 136 140 141 137 132 131 125 123 121 126 120 111 64 52 65